Indian Springs, NV

10:33 PM PST on January 19, 2017 (GMT -0800)
Indian Springs Air Force Auxiliary

Weather History for KINS - December, 2012

Change the Weather History Date:

Thursday, December 27, 2012

  Actual Average (KDRA) Record (KDRA)
Temperature  
Mean Temperature 38 °F -  
Max Temperature 47 °F 52 °F 67 °F (1980)
Min Temperature 28 °F 32 °F 17 °F (1988)
Degree Days  
Heating Degree Days 27    
Moisture  
Dew Point 20 °F    
Average Humidity 55    
Maximum Humidity 85    
Minimum Humidity 26    
Precipitation  
Precipitation 0.00 in - - ()
Sea Level Pressure  
Sea Level Pressure 29.96 in    
Wind  
Wind Speed 6 mph (West)    
Max Wind Speed 13 mph    
Max Gust Speed -    
Visibility 10 miles    
Events      
Averages and records for this station are not official NWS values.
T = Trace of Precipitation, MM = Missing Value Source: NWS Daily Summary

Daily Weather History Graph

Daily Weather History Graph

Search for Another Location

Airport or City:

Trip Planner

Search our weather history database for the weather conditions in past years. The results will help you decide how hot, cold, wet, or windy it might be!

Date:

Astronomy

Dec. 27, 2012 Rise Set
Actual Time 6:53 AM PST 4:34 PM PST
Civil Twilight 6:24 AM PST 5:03 PM PST
Nautical Twilight 5:52 AM PST 5:35 PM PST
Astronomical Twilight 5:21 AM PST 6:07 PM PST
Moon 4:20 PM PST (12/27) 6:08 AM PST (12/27)
Length of Visible Light 10h 38m
Length of Day
9h 40m
Full, 100% of the Moon is Illuminated
Dec 27
Full
Dec 28
Full
Jan 4
Last Quarter
Jan 11
New
Jan 18
First Quarter

Hourly Weather History & Observations

Time (PST) Temp. Windchill Dew Point Humidity Pressure Visibility Wind Dir Wind Speed Gust Speed Precip Events Conditions
12:58 AM 31.5 °F 24.9 °F 26.2 °F 81% 29.88 in 10.0 mi WSW 6.9 mph - N/A   Partly Cloudy
1:58 AM 30.9 °F 25.2 °F 26.1 °F 82% 29.88 in 10.0 mi West 5.8 mph - N/A   Mostly Cloudy
2:58 AM 29.1 °F 23.0 °F 25.2 °F 85% 29.87 in 10.0 mi SSW 5.8 mph - N/A   Clear
3:58 AM 30.4 °F 25.6 °F 25.5 °F 82% 29.86 in 10.0 mi WSW 4.6 mph - N/A   Clear
4:58 AM 30.7 °F 24.1 °F 25.2 °F 80% 29.87 in 10.0 mi WSW 6.9 mph - N/A   Mostly Cloudy
5:58 AM 30.9 °F 22.2 °F 24.1 °F 76% 29.89 in 10.0 mi WSW 10.4 mph - N/A   Clear
6:58 AM 31.8 °F 25.4 °F 22.3 °F 68% 29.91 in 10.0 mi WSW 6.9 mph - N/A   Clear
7:58 AM 30.7 °F 22.6 °F 22.6 °F 72% 29.92 in 10.0 mi SW 9.2 mph - N/A   Clear
8:58 AM 37.8 °F 32.5 °F 25.0 °F 60% 29.95 in 10.0 mi West 6.9 mph - N/A   Clear
9:58 AM 40.6 °F 37.5 °F 22.6 °F 49% 29.96 in 10.0 mi NNE 4.6 mph - N/A   Clear
10:58 AM 43.7 °F - 21.4 °F 41% 29.95 in 10.0 mi Calm Calm - N/A   Clear
11:58 AM 45.7 °F - 17.8 °F 33% 29.93 in 10.0 mi Variable 2.3 mph - N/A   Clear
12:58 PM 46.8 °F - 17.4 °F 31% 29.92 in 10.0 mi WNW 8.1 mph - N/A   Clear
1:58 PM 47.8 °F - 15.8 °F 28% 29.91 in 10.0 mi NW 6.9 mph - N/A   Clear
2:58 PM 46.4 °F 40.7 °F 13.3 °F 26% 29.93 in 10.0 mi NW 12.7 mph - N/A   Mostly Cloudy
3:58 PM 46.6 °F - 12.7 °F 26% 29.95 in 10.0 mi WNW 9.2 mph - N/A   Scattered Clouds
4:58 PM 40.8 °F 35.6 °F 15.6 °F 36% 29.97 in 10.0 mi WNW 8.1 mph - N/A   Partly Cloudy
5:58 PM 39.4 °F 37.2 °F 16.7 °F 40% 30.00 in 10.0 mi NNE 3.5 mph - N/A   Scattered Clouds
6:58 PM 39.0 °F - 16.9 °F 41% 30.02 in 10.0 mi SW 1.2 mph - N/A   Clear
7:58 PM 35.6 °F - 18.3 °F 50% 30.04 in 10.0 mi WSW 2.3 mph - N/A   Clear
8:58 PM 31.3 °F 26.6 °F 17.1 °F 56% 30.06 in 10.0 mi West 4.6 mph - N/A   Clear
9:58 PM 29.7 °F 24.7 °F 17.2 °F 60% 30.09 in 10.0 mi West 4.6 mph - N/A   Clear
10:58 PM 30.7 °F 24.1 °F 17.6 °F 58% 30.10 in 10.0 mi WSW 6.9 mph - N/A   Clear
11:58 PM 28.2 °F - 18.1 °F 66% 30.11 in 10.0 mi East 2.3 mph - N/A   Clear